Location: Nederland
(52.1000°N, 5.2000°E)
Time: 21:12:59
(UTC+02:00)

FENGYUN 1C DEB - Pass Details

Date: 04 February 2022
Orbit: 736 x 834 km, 99.0° (Epoch: 26 May)

Event Time Altitude Azimuth Distance (km) Brightness Sun altitude
Rises 07:33:40 0° 107° (ESE) 3,326 ? -6.7°
Reaches altitude 10° 07:36:48 10° 87° (E) 2,416 ? -6.2°
Maximum altitude 07:40:02 17° 49° (NE) 2,008 ? -5.8°
Drops below altitude 10° 07:43:18 10° 12° (NNE) 2,451 ? -5.3°
Sets 07:46:30 0° 353° (N) 3,397 ? -4.8°
